Previsão horária em Julianowo

Hoje, 24 Junho, Quinta-feira

Tempo Temperatura Precipitação Vento Pressão Humidade
00:00 +21°C° 0 mm 1 m/s 755 mmHg 83%
01:00 +21°C° 0 mm 1 m/s 755 mmHg 84%
02:00 +21°C° 0 mm 1 m/s 754 mmHg 86%
03:00 +19°C° 0 mm 2 m/s 754 mmHg 88%
04:00 +19°C° 0 mm 2 m/s 754 mmHg 90%
05:00 +20°C° 0 mm 2 m/s 754 mmHg 88%
06:00 +21°C° 0 mm 3 m/s 754 mmHg 85%
07:00 +22°C° 0 mm 3 m/s 754 mmHg 82%
08:00 +22°C° 0.6 mm 3 m/s 754 mmHg 85%
09:00 +22°C° 0.6 mm 4 m/s 753 mmHg 87%
10:00 +22°C° 0.6 mm 4 m/s 753 mmHg 90%
11:00 +23°C° 0.2 mm 4 m/s 753 mmHg 84%
12:00 +25°C° 0.2 mm 4 m/s 752 mmHg 78%
13:00 +27°C° 0.2 mm 4 m/s 752 mmHg 72%
14:00 +27°C° 0.2 mm 3 m/s 752 mmHg 71%
15:00 +28°C° 0.2 mm 3 m/s 751 mmHg 69%
16:00 +29°C° 0.2 mm 3 m/s 751 mmHg 68%
17:00 +27°C° 0.3 mm 3 m/s 751 mmHg 74%
18:00 +26°C° 0.3 mm 4 m/s 751 mmHg 80%
19:00 +23°C° 0.3 mm 5 m/s 751 mmHg 86%
20:00 +21°C° 0.1 mm 5 m/s 751 mmHg 89%
21:00 +19°C° 0.1 mm 4 m/s 751 mmHg 92%
22:00 +17°C° 0.1 mm 4 m/s 751 mmHg 95%
23:00 +17°C° 0 mm 4 m/s 751 mmHg 94%

Amanhã, 25 Junho, Sexta-feira

Tempo Temperatura Precipitação Vento Pressão Humidade
00:00 +17°C° 0 mm 4 m/s 751 mmHg 94%
01:00 +17°C° 0 mm 4 m/s 751 mmHg 93%
02:00 +15°C° 0 mm 4 m/s 751 mmHg 93%
03:00 +15°C° 0 mm 4 m/s 751 mmHg 94%
04:00 +15°C° 0 mm 5 m/s 751 mmHg 94%
05:00 +15°C° 0.1 mm 4 m/s 751 mmHg 92%
06:00 +15°C° 0.1 mm 4 m/s 752 mmHg 90%
07:00 +17°C° 0.1 mm 4 m/s 752 mmHg 88%
08:00 +17°C° 0 mm 4 m/s 752 mmHg 86%
09:00 +18°C° 0 mm 4 m/s 752 mmHg 84%
10:00 +17°C° 0 mm 5 m/s 753 mmHg 82%
11:00 +19°C° 0 mm 4 m/s 753 mmHg 78%
12:00 +20°C° 0 mm 4 m/s 753 mmHg 74%
13:00 +21°C° 0 mm 4 m/s 753 mmHg 70%
14:00 +21°C° 0.1 mm 4 m/s 753 mmHg 70%
15:00 +21°C° 0.1 mm 4 m/s 753 mmHg 70%
16:00 +21°C° 0.1 mm 3 m/s 753 mmHg 69%
17:00 +20°C° 0.2 mm 3 m/s 753 mmHg 74%
18:00 +20°C° 0.2 mm 3 m/s 752 mmHg 78%
19:00 +19°C° 0.2 mm 3 m/s 752 mmHg 83%
20:00 +18°C° 0 mm 3 m/s 753 mmHg 85%
21:00 +17°C° 0 mm 3 m/s 753 mmHg 88%
22:00 +16°C° 0 mm 2 m/s 754 mmHg 90%
23:00 +16°C° 0 mm 2 m/s 754 mmHg 91%

Depois de amanhã, 26 Junho, Sábado

Tempo Temperatura Precipitação Vento Pressão Humidade
00:00 +15°C° 0 mm 2 m/s 754 mmHg 91%
01:00 +15°C° 0 mm 2 m/s 754 mmHg 92%
02:00 +15°C° 0 mm 2 m/s 754 mmHg 92%
03:00 +14°C° 0 mm 2 m/s 754 mmHg 93%
04:00 +14°C° 0 mm 2 m/s 754 mmHg 93%
05:00 +15°C° 0 mm 2 m/s 754 mmHg 88%
06:00 +17°C° 0 mm 2 m/s 755 mmHg 82%
07:00 +18°C° 0 mm 2 m/s 755 mmHg 77%
08:00 +20°C° 0 mm 2 m/s 755 mmHg 71%
09:00 +21°C° 0 mm 2 m/s 755 mmHg 65%
10:00 +23°C° 0 mm 2 m/s 755 mmHg 59%
11:00 +24°C° 0 mm 2 m/s 755 mmHg 57%
12:00 +25°C° 0 mm 2 m/s 755 mmHg 54%
13:00 +25°C° 0 mm 2 m/s 755 mmHg 51%
14:00 +25°C° 0 mm 2 m/s 754 mmHg 56%
15:00 +24°C° 0 mm 2 m/s 754 mmHg 61%
16:00 +23°C° 0 mm 2 m/s 754 mmHg 65%
17:00 +23°C° 0 mm 2 m/s 754 mmHg 67%
18:00 +22°C° 0 mm 1 m/s 754 mmHg 68%
19:00 +22°C° 0 mm 1 m/s 754 mmHg 70%
20:00 +21°C° 0 mm 1 m/s 754 mmHg 71%
21:00 +20°C° 0 mm 1 m/s 754 mmHg 72%
22:00 +19°C° 0 mm 1 m/s 755 mmHg 73%
23:00 +19°C° 0 mm 1 m/s 755 mmHg 75%

27 Junho, Domingo

Tempo Temperatura Precipitação Vento Pressão Humidade
00:00 +17°C° 0 mm 2 m/s 755 mmHg 78%
01:00 +16°C° 0 mm 2 m/s 755 mmHg 80%
02:00 +16°C° 0 mm 1 m/s 755 mmHg 81%
03:00 +15°C° 0 mm 1 m/s 755 mmHg 81%
04:00 +15°C° 0 mm 1 m/s 755 mmHg 82%
05:00 +18°C° 0 mm 1 m/s 755 mmHg 77%
06:00 +17°C° 0 mm 0 m/s 755 mmHg 71%
07:00 +19°C° 0 mm 0 m/s 755 mmHg 65%
08:00 +21°C° 0 mm 0 m/s 755 mmHg 61%
09:00 +22°C° 0 mm 0 m/s 755 mmHg 57%
10:00 +23°C° 0 mm 0 m/s 755 mmHg 53%
11:00 +24°C° 0 mm 0 m/s 755 mmHg 52%
12:00 +26°C° 0 mm 1 m/s 754 mmHg 50%
13:00 +27°C° 0 mm 1 m/s 754 mmHg 49%
14:00 +27°C° 0 mm 1 m/s 754 mmHg 51%
15:00 +27°C° 0 mm 1 m/s 754 mmHg 53%
16:00 +27°C° 0 mm 1 m/s 754 mmHg 55%
17:00 +26°C° 0 mm 1 m/s 754 mmHg 59%
18:00 +25°C° 0 mm 1 m/s 754 mmHg 62%
19:00 +24°C° 0 mm 1 m/s 754 mmHg 66%
20:00 +23°C° 0 mm 1 m/s 754 mmHg 67%
21:00 +22°C° 0 mm 1 m/s 754 mmHg 67%
22:00 +21°C° 0 mm 1 m/s 754 mmHg 68%
23:00 +21°C° 0 mm 1 m/s 754 mmHg 71%

28 Junho, Segunda-feira

Tempo Temperatura Precipitação Vento Pressão Humidade
00:00 +20°C° 0 mm 1 m/s 754 mmHg 73%
01:00 +19°C° 0 mm 2 m/s 754 mmHg 75%
02:00 +18°C° 0 mm 2 m/s 754 mmHg 76%
03:00 +18°C° 0 mm 2 m/s 754 mmHg 77%
04:00 +18°C° 0 mm 2 m/s 754 mmHg 78%
05:00 +19°C° 0 mm 2 m/s 754 mmHg 75%
06:00 +21°C° 0 mm 2 m/s 754 mmHg 72%
07:00 +23°C° 0 mm 2 m/s 755 mmHg 69%
08:00 +24°C° 0 mm 2 m/s 754 mmHg 63%
09:00 +26°C° 0 mm 2 m/s 754 mmHg 58%
10:00 +28°C° 0 mm 3 m/s 754 mmHg 52%
11:00 +28°C° 0 mm 2 m/s 754 mmHg 50%
12:00 +29°C° 0 mm 2 m/s 754 mmHg 47%
13:00 +30°C° 0 mm 2 m/s 754 mmHg 44%
14:00 +30°C° 0 mm 2 m/s 753 mmHg 44%
15:00 +30°C° 0 mm 2 m/s 753 mmHg 44%
16:00 +30°C° 0 mm 2 m/s 753 mmHg 44%
17:00 +29°C° 0 mm 2 m/s 753 mmHg 51%
18:00 +27°C° 0 mm 3 m/s 753 mmHg 58%
19:00 +26°C° 0 mm 3 m/s 753 mmHg 65%
20:00 +25°C° 0 mm 3 m/s 753 mmHg 67%
21:00 +24°C° 0 mm 3 m/s 753 mmHg 69%
22:00 +21°C° 0 mm 3 m/s 753 mmHg 71%
23:00 +21°C° 0 mm 3 m/s 753 mmHg 72%

29 Junho, Terça-feira

Tempo Temperatura Precipitação Vento Pressão Humidade
00:00 +20°C° 0 mm 3 m/s 753 mmHg 73%
01:00 +20°C° 0 mm 3 m/s 753 mmHg 74%
02:00 +20°C° 0.3 mm 3 m/s 753 mmHg 77%
03:00 +19°C° 0.3 mm 3 m/s 753 mmHg 80%
04:00 +19°C° 0.3 mm 3 m/s 752 mmHg 84%
05:00 +21°C° 0.2 mm 3 m/s 753 mmHg 80%
06:00 +22°C° 0.2 mm 3 m/s 753 mmHg 76%
07:00 +24°C° 0.2 mm 3 m/s 753 mmHg 72%
08:00 +26°C° 0.1 mm 4 m/s 753 mmHg 65%
09:00 +28°C° 0.1 mm 4 m/s 753 mmHg 58%
10:00 +29°C° 0.1 mm 4 m/s 753 mmHg 52%
11:00 +30°C° 0 mm 4 m/s 752 mmHg 50%
12:00 +31°C° 0 mm 3 m/s 752 mmHg 48%
13:00 +33°C° 0 mm 3 m/s 752 mmHg 46%
14:00 +33°C° 0 mm 3 m/s 752 mmHg 45%
15:00 +34°C° 0 mm 3 m/s 752 mmHg 45%
16:00 +34°C° 0 mm 3 m/s 752 mmHg 44%
17:00 +31°C° 0.6 mm 3 m/s 752 mmHg 54%
18:00 +29°C° 0.6 mm 3 m/s 752 mmHg 63%
19:00 +27°C° 0.6 mm 3 m/s 752 mmHg 73%
20:00 +25°C° 1.3 mm 3 m/s 752 mmHg 78%
21:00 +24°C° 1.3 mm 3 m/s 752 mmHg 83%
22:00 +22°C° 1.3 mm 3 m/s 752 mmHg 89%
23:00 +21°C° 0.3 mm 3 m/s 752 mmHg 90%
Mostrar mais

Necessitamos do seu Consentimento

A Meteoprog e os seus Fornecedores de Serviços podem armazenar e aceder a dados pessoais como cookies, identificadores do dispositivo ou outras tecnologias semelhantes existentes no seu dispositivo e processar estes dados para personalizar conteúdos e anúncios, assim como funcionalidades nas redes sociais e análise de tráfego.

  • Armazenar e/ou aceder a informações no seu dispositivo

    Os cookies, identificadores do dispositivo ou outras informações podem ser armazenados ou acedidos no seu dispositivo, para os fins acima indicados.

  • Anúncios e conteúdos personalizados, medição de anúncios e conteúdos, dados sobre o público-alvo e desenvolvimento de produtos

    Os anúncios e os conteúdos podem ser personalizados com base num perfil. Podem ser adicionados dados adicionais para uma maior personalização dos anúncios e dos conteúdos. A eficácia dos anúncios e dos conteúdos pode ser medida. Podem ser obtidas informações sobre o público que visualizou os anúncios e os conteúdos. Estes dados podem ser usados para desenvolver ou melhorar sistemas, softwares ou a experiência do utilizador.

Ao clicar em "Eu concordo”, permitirá o uso de cookies, identificadores do dispositivo e web beacons mencionados ou outras tecnologias semelhantes. As configurações do navegador do seu dispositivo podem ser alteradas.

Para certos fins, podem ser invocados interesses legítimos ao invés de consentimento. Pode ler mais informação sobre este assunto na nossa Política de Privacidade e Cookies.